SUPERBIRD-B3

Last updated on Sun Jun 21 2026 00:03:07 GMT+0000 (Coordinated Universal Time)

1 43271U 18033A 26171.37822667 -.00000097 00000+0 00000+0 0 9995 2 43271 0.0262 290.7153 0001175 169.2877 106.7514 1.00270639 30094
UTC large
Height (km)
Speed (km/s)
/
Latitude / Longitude
Inclination (degrees)
Orbital Period (minutes)
Azimuth
Elevation
Range (km)
Doppler Factor

Next 0 passes for location: London (51.5072 / 0.1276)

No passes found over London.
SUPERBIRD-B3